Regional Weather Roundup
Issued by NWS Burlington, VT

Home | Current Version | Previous Version | Text Only | Print | Product List | Glossary On
Versions: 1 2 3 4 5 6 7 8 9 10 11 12 13 14 15 16 17 18 19 20 21 22 23 24 25 26 27 28 29 30 31 32 33 34 35 36 37 38 39 40 41 42 43 44 45 46 47 48 49 50
000
ASUS41 KBTV 152010
RWRBTV
VERMONT REGIONAL WEATHER ROUNDUP
NATIONAL WEATHER SERVICE BURLINGTON VT
300 PM EST FRI DEC 15 2017

NOTE: "FAIR" INDICATES FEW OR NO CLOUDS BELOW 12,000 FEET WITH NO
SIGNIFICANT WEATHER AND/OR OBSTRUCTIONS TO VISIBILITY.

* THESE REPORTS ARE NOT UNDER NWS QUALITY CONTROL AND/OR DO NOT
  REPORT WEATHER SUCH AS PRECIPITATION AND FOG.

VTZ001>019-152100-
_____VERMONT_____


CITY           SKY/WX    TMP DP  RH WIND       PRES   REMARKS
BURLINGTON     CLOUDY    22   9  57 S10       29.90F WCI  11
MONTPELIER     CLOUDY    20   7  57 S10       29.89F WCI   9
MORRISVILLE    CLOUDY    19   7  59 CALM      29.88F
ST. JOHNSBURY*   N/A     18   7  62 MISG      29.89F
LYNDONVILLE*   FAIR      15   4  60 CALM      29.88F
MIDDLEBURY*    FAIR      20  11  66 S8        29.90F WCI  11
RUTLAND*       CLOUDY    21  15  78 CALM      29.89F
SPRINGFIELD    PTCLDY    21   9  59 CALM      29.93F
HIGHGATE*      FAIR      23   9  55 S5        29.89F WCI  16
NEWPORT*       FAIR      17   5  58 SE8       29.87F WCI   7
BENNINGTON     CLOUDY    22  10  60 S8        29.88F WCI  12
SUTTON*          N/A     14 N/A N/A MISG        N/A

_____LAKE CHAMPLAIN_____


CITY           SKY/WX    TMP DP  RH WIND       PRES   REMARKS
BURTON ISLAND*   N/A     25  16  68 S17G23      N/A  WCI  11
COLCHESTER RF*   N/A     27  19  74 S24         N/A  WCI  12
DIAMOND ISL*     N/A     23  14  68 S10         N/A  WCI  12

$$

NYZ007-026>031-035-052-083-087-152100-
_____NORTHERN NEW YORK_____


CITY           SKY/WX    TMP DP  RH WIND       PRES   REMARKS
PLATTSBURGH    MOCLDY    22  12  65 S12       29.89F WCI  10
SARANAC LAKE   CLOUDY    18  11  74 S13       29.76F WCI   5
MASSENA        CLOUDY    20  17  88 N5        29.87F WCI  13
OGDENSBURG*    LGT SNOW  25  20  82 CALM      29.84S VSB 1
POTSDAM*       CLOUDY    25  12  58 S5        29.82F WCI  19
WATERTOWN      CLOUDY    23  14  68 S9        29.83F WCI  13
FT DRUM        CLOUDY    22  13  69 S10       29.80F WCI  11
ALBANY         CLOUDY    22   9  57 S7G21     29.93F WCI  13
GLENS FALLS    CLOUDY    19  11  70 E3        29.92F

$$
NHZ002-005-011-152100-
_____NEW HAMPSHIRE_____


CITY           SKY/WX    TMP DP  RH WIND       PRES   REMARKS
LEBANON        MOCLDY    18  10  71 CALM      29.91F
KEENE          CLOUDY    23  16  74 CALM      29.94F
MT WASHINGTON  PTCLDY     0  -4  85 W36         N/A  WCI -28
PLYMOUTH       FAIR      23   7  50 CALM      29.92S
WHITEFIELD     CLOUDY    21   4  47 NW3       29.87S

$$

_____REGIONAL QUEBEC LOCATIONS_____


CITY           SKY/WX    TMP DP  RH WIND       PRES   REMARKS
MONTREAL       CLOUDY    14   5  67 E2        29.90F
QUEBEC CITY    MOCLDY     5  -4  66 W6        29.92F WCI  -6
SHERBROOKE     PTCLDY    18   1  49 SW6       29.86F WCI   9

_____REGIONAL ONTARIO LOCATIONS_____


CITY           SKY/WX    TMP DP  RH WIND       PRES   REMARKS
OTTAWA         FLURRIES  10   5  79 NE7       29.84F WCI   0

______KEY______
VSB  - VISIBILITY IN MILES
WCI  - WIND CHILL INDEX
HX   - HEAT INDEX
$$
NNNN




USA.gov is the U.S. government's official web portal to all federal, state and local government web resources and services.